Flag for Germany Weather past 2 weeks in Coburg, Bavaria, Germany

Now
31 °F

Overcast.


Feels Like: 31 °F
Forecast: 30 / 47 °F
Wind: 1 mph from Southeast

Location: Bamberg

Current Time: Mar 6, 2015 at 7:18:08 AM

Latest Report: Mar 6, 2015 at 7:00 AM


Visibility: 12 mi

Pressure: 30.67 "Hg

Humidity: 91%

Dew point: 29 °F

Location of CoburgLocation

Historic Weather in Coburg — Graph

°F

Coburg temperature yesterday

Maximum temperature yesterday: 43 °F (at 3:00 PM)
Minimum temperature yesterday: 34 °F (at 12:00 AM)
Average temperature yesterday: 39 °F

Past Weeks' High & Low Weather Summary

 TemperatureHumidityPressure
High53 °F (Feb 20, 4:00 PM)98% (Feb 24, 12:00 AM)30.67 "Hg (Feb 24, 12:00 AM)
Low21 °F (Feb 27, 7:00 AM)42% (Feb 26, 2:00 PM)29.50 "Hg (Feb 21, 12:00 PM)
Average37 °F78%30.02 "Hg
* Reported Feb 19 6:00 AM — Mar 6 6:00 AM, Coburg, Weather by CustomWeather, © 2015

Note: Actual official high and low records may vary slightly from our data, if they occured in-between our weather recording intervals... More about our weather records

Advertising

Coburg weather history for previous 24 hours

 ConditionsComfort  
Time TempWeatherWind HumidityBarometerVisibility
6:00 AM
Fri, Mar 6
30 °FOvercast.1 mph94%30.67 "Hg11 mi
5:00 AM29 °FOvercast.1 mph94%30.66 "Hg13 mi
4:00 AM28 °FOvercast.1 mph93%30.65 "Hg18 mi
3:00 AM27 °FPassing clouds.1 mph92%30.66 "Hg19 mi
2:00 AM29 °FOvercast.1 mph93%30.67 "Hg25 mi
1:00 AM30 °FOvercast.1 mph92%30.66 "Hg22 mi
12:00 AM33 °FOvercast.1 mph89%30.66 "Hg34 mi
10:00 PM
Thu, Mar 5
34 °FOvercast.1 mph80%30.64 "Hg40 mi
9:00 PM36 °FOvercast.1 mph73%30.63 "Hg34 mi
8:00 PM40 °FOvercast.2 mph64%30.62 "Hg31 mi
7:00 PM40 °FOvercast.3 mph61%30.61 "Hg43 mi
6:00 PM42 °FOvercast.6 mph53%30.59 "Hg43 mi
5:00 PM42 °FOvercast.6 mph55%30.58 "Hg43 mi
4:00 PM43 °FOvercast.6 mph55%30.57 "Hg43 mi
3:00 PM43 °FOvercast.7 mph53%30.57 "Hg40 mi
2:00 PM43 °FOvercast.6 mph51%30.57 "Hg25 mi
1:00 PM43 °FOvercast.6 mph52%30.57 "Hg22 mi
12:00 PM42 °FOvercast.7 mph56%30.58 "Hg19 mi
11:00 AM41 °FOvercast.6 mph60%30.58 "Hg19 mi
10:00 AM38 °FOvercast.7 mph63%30.57 "Hg28 mi
9:00 AM38 °FPassing clouds.8 mph68%30.55 "Hg18 mi
8:00 AM37 °FOvercast.6 mph73%30.53 "Hg31 mi
7:00 AM37 °FOvercast.6 mph77%30.50 "Hg25 mi
Weather by CustomWeather, © 2015

See weather overviewHow to use our weather pages